CPA1005 VHHH-ZBAD

Flight info

Callsign CPA1005
Flight time 2h 45m
Altitude 33100
Route BEKOL1D BEKOL A461 BUBDA/K0865S1040 W56 REBIS/K0863S1010 W56 GUDRO/K0856S1070 W56 ORODO/K0841S1040 W62 KARVU/K0843S1070 W62 IGDID/K0839S1040 W62 TEKIL/K0837S1070 G212 BELAX BELAX5L
Aircraft A321/M-SDE2E3FGILRWXY/CLB2

Departure

Time 2026-04-23 04:59
Airport Hong Kong International Airport (VHHH)

Arrival

Time 2026-04-23 07:44
Airport Beijing Daxing International Airport (ZBAD)
Time Latitude Longitude Altitude Speed Heading
2026-04-23 04:26 22.31751 113.93286 32 ft 0 kts 70°
2026-04-23 04:45 22.31748 113.93276 32 ft 2 kts 68°
2026-04-23 04:46 22.31742 113.93260 32 ft 2 kts 67°
2026-04-23 04:46 22.31734 113.93244 30 ft 2 kts 63°
2026-04-23 04:46 22.31726 113.93228 31 ft 2 kts 57°
2026-04-23 04:46 22.31717 113.93213 29 ft 2 kts 49°
2026-04-23 04:47 22.31705 113.93201 29 ft 2 kts 34°
2026-04-23 04:47 22.31691 113.93192 30 ft 2 kts 12°
2026-04-23 04:47 22.31680 113.93190 31 ft 2 kts 356°
2026-04-23 04:47 22.31669 113.93191 30 ft 1 kts 350°
2026-04-23 04:48 22.31668 113.93191 30 ft 0 kts 351°
2026-04-23 04:49 22.31710 113.93178 29 ft 20 kts 342°
2026-04-23 04:50 22.31804 113.93144 31 ft 12 kts 341°
2026-04-23 04:50 22.31868 113.93102 30 ft 10 kts 293°
2026-04-23 04:50 22.31858 113.93031 31 ft 9 kts 250°
2026-04-23 04:50 22.31838 113.92970 31 ft 8 kts 251°
2026-04-23 04:51 22.31817 113.92902 31 ft 16 kts 251°
2026-04-23 04:51 22.31747 113.92682 31 ft 33 kts 250°
2026-04-23 04:51 22.31686 113.92505 31 ft 23 kts 250°
2026-04-23 04:51 22.31636 113.92346 31 ft 22 kts 251°
2026-04-23 04:52 22.31587 113.92197 31 ft 20 kts 249°
2026-04-23 04:52 22.31524 113.92077 31 ft 15 kts 210°
2026-04-23 04:52 22.31441 113.92091 31 ft 11 kts 165°
2026-04-23 04:52 22.31373 113.92118 31 ft 11 kts 159°
2026-04-23 04:53 22.31277 113.92153 32 ft 18 kts 162°
2026-04-23 04:53 22.31145 113.92200 33 ft 22 kts 160°
2026-04-23 04:53 22.31003 113.92253 34 ft 23 kts 161°
2026-04-23 04:53 22.30845 113.92312 35 ft 23 kts 161°
2026-04-23 04:54 22.30690 113.92370 36 ft 20 kts 158°
2026-04-23 04:54 22.30670 113.92495 34 ft 22 kts 68°
2026-04-23 04:54 22.30729 113.92668 34 ft 18 kts 70°
2026-04-23 04:54 22.30782 113.92815 35 ft 22 kts 69°
2026-04-23 04:55 22.30822 113.92951 35 ft 18 kts 73°
2026-04-23 04:55 22.30859 113.93069 33 ft 12 kts 73°
2026-04-23 04:55 22.30830 113.93135 33 ft 5 kts 155°
2026-04-23 04:55 22.30827 113.93136 34 ft 0 kts 158°
2026-04-23 04:57 22.30813 113.93142 35 ft 4 kts 158°
2026-04-23 04:57 22.30776 113.93159 34 ft 8 kts 157°
2026-04-23 04:58 22.30717 113.93164 34 ft 10 kts 203°
2026-04-23 04:58 22.30681 113.93090 34 ft 17 kts 250°
2026-04-23 04:58 22.30566 113.92735 35 ft 82 kts 251°
2026-04-23 04:58 22.30315 113.91962 36 ft 133 kts 251°
2026-04-23 04:59 22.29971 113.90876 42 ft 171 kts 257°
2026-04-23 04:59 22.29594 113.89620 490 ft 175 kts 257°
2026-04-23 04:59 22.29214 113.88395 1017 ft 171 kts 249°
2026-04-23 04:59 22.28816 113.87181 1490 ft 172 kts 247°
2026-04-23 05:00 22.28406 113.85947 1827 ft 181 kts 247°
2026-04-23 05:00 22.27960 113.84604 2011 ft 197 kts 247°
2026-04-23 05:00 22.27491 113.83183 2410 ft 203 kts 247°
2026-04-23 05:00 22.27021 113.81741 2971 ft 205 kts 248°
2026-04-23 05:01 22.26488 113.80310 3443 ft 212 kts 233°
2026-04-23 05:01 22.25290 113.79384 3750 ft 223 kts 196°
2026-04-23 05:01 22.23704 113.79286 4211 ft 236 kts 179°
2026-04-23 05:01 22.22052 113.79402 4825 ft 239 kts 179°
2026-04-23 05:02 22.20390 113.79531 5433 ft 241 kts 180°
2026-04-23 05:02 22.18698 113.79663 5993 ft 245 kts 180°
2026-04-23 05:02 22.16980 113.79794 6546 ft 249 kts 181°
2026-04-23 05:02 22.15242 113.79928 7072 ft 252 kts 180°
2026-04-23 05:03 22.13483 113.80065 7584 ft 255 kts 180°
2026-04-23 05:03 22.11696 113.80203 8115 ft 259 kts 180°
2026-04-23 05:03 22.09889 113.80340 8639 ft 262 kts 180°
2026-04-23 05:03 22.08067 113.80650 9151 ft 271 kts 166°
2026-04-23 05:04 22.06275 113.81497 9348 ft 292 kts 157°
2026-04-23 05:04 22.04408 113.82521 9758 ft 300 kts 156°
2026-04-23 05:04 22.02548 113.83555 10068 ft 312 kts 156°
2026-04-23 05:04 22.00555 113.84664 10177 ft 331 kts 156°
2026-04-23 05:05 21.98427 113.85842 10297 ft 348 kts 156°
2026-04-23 05:05 21.96221 113.87057 10413 ft 365 kts 156°
2026-04-23 05:05 21.93917 113.88323 10517 ft 380 kts 156°
2026-04-23 05:05 21.91513 113.89644 10720 ft 392 kts 156°
2026-04-23 05:06 21.89063 113.90992 11128 ft 397 kts 156°
2026-04-23 05:06 21.86597 113.92349 11596 ft 400 kts 156°
2026-04-23 05:06 21.84227 113.93938 12036 ft 408 kts 141°
2026-04-23 05:06 21.82463 113.96352 12475 ft 416 kts 118°
2026-04-23 05:07 21.81665 113.99348 12913 ft 422 kts 95°
2026-04-23 05:07 21.81987 114.02484 13340 ft 425 kts 71°
2026-04-23 05:07 21.83190 114.05391 13784 ft 426 kts 62°
2026-04-23 05:07 21.84537 114.08238 14167 ft 429 kts 61°
2026-04-23 05:08 21.85925 114.11096 14545 ft 431 kts 61°
2026-04-23 05:08 21.87442 114.13870 14904 ft 432 kts 52°
2026-04-23 05:08 21.89462 114.16259 15252 ft 431 kts 39°
2026-04-23 05:08 21.91901 114.18117 15596 ft 430 kts 26°
2026-04-23 05:09 21.94651 114.19353 15946 ft 427 kts 13°
2026-04-23 05:09 21.97559 114.19896 16279 ft 425 kts 360°
2026-04-23 05:09 22.00506 114.19760 16624 ft 423 kts 350°
2026-04-23 05:09 22.03424 114.19409 16960 ft 425 kts 350°
2026-04-23 05:10 22.06381 114.19051 17305 ft 427 kts 350°
2026-04-23 05:10 22.09333 114.18694 17649 ft 428 kts 350°
2026-04-23 05:10 22.12305 114.18338 17972 ft 431 kts 350°
2026-04-23 05:10 22.15281 114.17986 18268 ft 433 kts 350°
2026-04-23 05:11 22.18287 114.17634 18550 ft 434 kts 351°
2026-04-23 05:11 22.21296 114.17280 18837 ft 436 kts 350°
2026-04-23 05:11 22.24319 114.16921 19136 ft 437 kts 350°
2026-04-23 05:11 22.27386 114.16556 19446 ft 438 kts 350°
2026-04-23 05:12 22.30379 114.16197 19720 ft 440 kts 350°
2026-04-23 05:12 22.33466 114.15828 20007 ft 441 kts 350°
2026-04-23 05:12 22.36522 114.15462 20295 ft 443 kts 350°
2026-04-23 05:12 22.39594 114.15095 20582 ft 445 kts 350°
2026-04-23 05:13 22.42662 114.14730 20847 ft 446 kts 350°
2026-04-23 05:13 22.45762 114.14361 21131 ft 448 kts 350°
2026-04-23 05:13 22.48867 114.13988 21411 ft 449 kts 350°
2026-04-23 05:14 22.55006 114.12818 21950 ft 447 kts 338°
2026-04-23 05:14 22.57862 114.11533 22219 ft 445 kts 331°
2026-04-23 05:14 22.60655 114.10085 22490 ft 447 kts 332°
2026-04-23 05:14 22.63475 114.08630 22756 ft 448 kts 332°
2026-04-23 05:15 22.66285 114.07184 23021 ft 449 kts 332°
2026-04-23 05:15 22.69113 114.05731 23287 ft 451 kts 332°
2026-04-23 05:15 22.71953 114.04275 23523 ft 452 kts 332°
2026-04-23 05:15 22.74802 114.02814 23726 ft 453 kts 332°
2026-04-23 05:16 22.77659 114.01349 23928 ft 454 kts 332°
2026-04-23 05:16 22.80517 113.99881 24119 ft 456 kts 332°
2026-04-23 05:16 22.83387 113.98403 24313 ft 457 kts 332°
2026-04-23 05:16 22.86265 113.96915 24529 ft 459 kts 332°
2026-04-23 05:17 22.89149 113.95425 24737 ft 460 kts 332°
2026-04-23 05:17 22.92038 113.93931 24945 ft 461 kts 331°
2026-04-23 05:17 22.94939 113.92424 25169 ft 462 kts 331°
2026-04-23 05:17 22.97839 113.90914 25385 ft 464 kts 331°
2026-04-23 05:18 23.00754 113.89390 25605 ft 465 kts 331°
2026-04-23 05:18 23.03670 113.87865 25833 ft 466 kts 331°
2026-04-23 05:18 23.06600 113.86336 26036 ft 468 kts 331°
2026-04-23 05:18 23.09552 113.84856 26309 ft 468 kts 335°
2026-04-23 05:19 23.12618 113.83645 26580 ft 468 kts 336°
2026-04-23 05:19 23.15674 113.82453 26859 ft 467 kts 336°
2026-04-23 05:19 23.18726 113.81256 27123 ft 466 kts 336°
2026-04-23 05:19 23.21767 113.80058 27383 ft 465 kts 336°
2026-04-23 05:20 23.24816 113.78855 27649 ft 465 kts 336°
2026-04-23 05:20 23.27852 113.77656 27910 ft 464 kts 336°
2026-04-23 05:20 23.30863 113.76468 28175 ft 463 kts 336°
2026-04-23 05:20 23.33915 113.75266 28447 ft 463 kts 336°
2026-04-23 05:21 23.35961 113.74460 28621 ft 462 kts 336°
2026-04-23 05:21 23.38982 113.73270 28888 ft 462 kts 336°
2026-04-23 05:21 23.41911 113.72118 29147 ft 461 kts 336°
2026-04-23 05:21 23.44694 113.71021 29399 ft 460 kts 335°
2026-04-23 05:22 23.47696 113.69834 29677 ft 459 kts 335°
2026-04-23 05:22 23.50700 113.68645 29939 ft 459 kts 335°
2026-04-23 05:22 23.53691 113.67463 30158 ft 458 kts 335°
2026-04-23 05:22 23.56689 113.66282 30388 ft 457 kts 335°
2026-04-23 05:23 23.59670 113.65103 30633 ft 456 kts 335°
2026-04-23 05:23 23.62647 113.63925 30874 ft 454 kts 335°
2026-04-23 05:23 23.65611 113.62750 31106 ft 453 kts 335°
2026-04-23 05:23 23.68572 113.61576 31348 ft 452 kts 335°
2026-04-23 05:24 23.71536 113.60400 31590 ft 451 kts 335°
2026-04-23 05:24 23.74475 113.59235 31856 ft 450 kts 335°
2026-04-23 05:24 23.77414 113.58069 32114 ft 448 kts 334°
2026-04-23 05:24 23.80335 113.56908 32358 ft 448 kts 334°
2026-04-23 05:25 23.83264 113.55743 32667 ft 447 kts 334°
2026-04-23 05:25 23.86180 113.54583 32964 ft 446 kts 334°
2026-04-23 05:25 23.89097 113.53423 33026 ft 444 kts 334°
2026-04-23 05:26 23.94888 113.51124 33038 ft 443 kts 334°
2026-04-23 05:26 24.00678 113.48817 33040 ft 443 kts 334°
2026-04-23 05:27 24.06463 113.46506 33047 ft 443 kts 333°
2026-04-23 05:27 24.12282 113.44173 33049 ft 443 kts 333°
2026-04-23 05:28 24.18113 113.42046 33061 ft 450 kts 341°
2026-04-23 05:28 24.21285 113.41611 33057 ft 459 kts 352°
2026-04-23 05:28 24.24495 113.41681 33057 ft 463 kts 355°
2026-04-23 05:29 24.30935 113.41912 33058 ft 463 kts 354°
2026-04-23 05:29 24.37387 113.42116 33056 ft 464 kts 354°
2026-04-23 05:30 24.43834 113.42282 33065 ft 464 kts 354°
2026-04-23 05:30 24.50301 113.42451 33072 ft 464 kts 354°
2026-04-23 05:31 24.56757 113.42630 33076 ft 465 kts 353°
2026-04-23 05:31 24.63227 113.42815 33073 ft 465 kts 354°
2026-04-23 05:32 24.69703 113.43002 33075 ft 465 kts 353°
2026-04-23 05:32 24.76166 113.43187 33073 ft 465 kts 353°
2026-04-23 05:33 24.82648 113.43367 33077 ft 466 kts 353°
2026-04-23 05:33 24.89132 113.43550 33079 ft 466 kts 353°
2026-04-23 05:34 24.95619 113.43741 33082 ft 466 kts 353°
2026-04-23 05:34 25.02148 113.43928 33083 ft 467 kts 353°
2026-04-23 05:35 25.08651 113.44111 33084 ft 467 kts 353°
2026-04-23 05:35 25.15149 113.44292 33094 ft 467 kts 353°
2026-04-23 05:36 25.21645 113.44473 33096 ft 467 kts 353°
2026-04-23 05:36 25.28144 113.44663 33094 ft 467 kts 353°
2026-04-23 05:37 25.34670 113.44853 33100 ft 469 kts 353°
2026-04-23 05:37 25.41182 113.45038 33104 ft 469 kts 353°
2026-04-23 05:38 25.47710 113.45224 33101 ft 469 kts 353°
2026-04-23 05:38 25.54238 113.45414 33103 ft 470 kts 353°
2026-04-23 05:39 25.60777 113.45601 33110 ft 470 kts 352°
2026-04-23 05:39 25.67320 113.45794 33115 ft 471 kts 352°
2026-04-23 05:40 25.73870 113.45984 33115 ft 471 kts 352°
2026-04-23 05:40 25.80424 113.46171 33119 ft 471 kts 352°
2026-04-23 05:41 25.86984 113.46360 33116 ft 471 kts 352°
2026-04-23 05:41 25.93500 113.46278 33124 ft 467 kts 348°
2026-04-23 05:42 25.99996 113.45931 33126 ft 466 kts 347°
2026-04-23 05:42 26.06484 113.45587 33133 ft 468 kts 348°
2026-04-23 05:43 26.13051 113.45321 33119 ft 470 kts 346°
2026-04-23 05:43 26.19590 113.45094 33121 ft 471 kts 346°
2026-04-23 05:44 26.26132 113.44863 33122 ft 471 kts 346°
2026-04-23 05:44 26.32692 113.44610 33127 ft 471 kts 346°
2026-04-23 05:45 26.39247 113.44357 33134 ft 472 kts 346°
2026-04-23 05:45 26.45808 113.44105 33133 ft 472 kts 346°
2026-04-23 05:46 26.52361 113.43852 33140 ft 472 kts 345°
2026-04-23 05:46 26.58929 113.43601 33142 ft 472 kts 345°
2026-04-23 05:47 26.65494 113.43351 33142 ft 472 kts 345°
2026-04-23 05:47 26.72060 113.43089 33136 ft 472 kts 345°
2026-04-23 05:48 26.78619 113.42838 33126 ft 471 kts 345°
2026-04-23 05:48 26.85184 113.42586 33133 ft 473 kts 345°
2026-04-23 05:49 26.91772 113.42331 33139 ft 474 kts 345°
2026-04-23 05:49 26.98366 113.42086 33136 ft 474 kts 345°
2026-04-23 05:50 27.04988 113.41835 33137 ft 473 kts 345°
2026-04-23 05:50 27.11535 113.41575 33136 ft 473 kts 345°
2026-04-23 05:51 27.18159 113.41309 33135 ft 474 kts 345°
2026-04-23 05:51 27.24756 113.41055 33140 ft 474 kts 345°
2026-04-23 05:52 27.31353 113.40802 33136 ft 474 kts 345°
2026-04-23 05:52 27.37983 113.40700 33137 ft 480 kts 348°
2026-04-23 05:53 27.44676 113.40889 33135 ft 482 kts 349°
2026-04-23 05:53 27.50252 113.41087 33136 ft 482 kts 348°
2026-04-23 05:54 27.56963 113.41258 33137 ft 481 kts 348°
2026-04-23 05:54 27.63558 113.41367 33136 ft 481 kts 348°
2026-04-23 05:55 27.70192 113.41638 33131 ft 487 kts 351°
2026-04-23 05:55 27.77033 113.42300 33136 ft 491 kts 353°
2026-04-23 05:56 27.81919 113.42828 33122 ft 490 kts 352°
2026-04-23 05:56 27.85535 113.43161 33021 ft 487 kts 351°
2026-04-23 05:56 27.88861 113.43444 33181 ft 488 kts 351°
2026-04-23 05:57 27.92299 113.43744 33086 ft 490 kts 352°
2026-04-23 05:57 27.99106 113.44363 33089 ft 486 kts 352°
2026-04-23 05:58 28.05859 113.44964 33094 ft 487 kts 351°
2026-04-23 05:58 28.12618 113.45534 33100 ft 487 kts 351°
2026-04-23 05:59 28.19354 113.46002 33111 ft 486 kts 350°
2026-04-23 05:59 28.26128 113.46448 33119 ft 487 kts 351°
2026-04-23 06:00 28.32900 113.46930 33124 ft 488 kts 351°
2026-04-23 06:00 28.39670 113.47430 33130 ft 488 kts 351°
2026-04-23 06:01 28.46433 113.47925 33133 ft 488 kts 351°
2026-04-23 06:01 28.53218 113.48408 33133 ft 487 kts 351°
2026-04-23 06:02 28.59982 113.48879 33135 ft 487 kts 350°
2026-04-23 06:02 28.66738 113.49358 33140 ft 487 kts 351°
2026-04-23 06:03 28.73504 113.49846 33132 ft 486 kts 351°
2026-04-23 06:03 28.80266 113.50337 33136 ft 487 kts 350°
2026-04-23 06:04 28.87023 113.50824 33111 ft 487 kts 350°
2026-04-23 06:04 28.93813 113.51310 33111 ft 486 kts 350°
2026-04-23 06:05 29.00577 113.51799 33122 ft 486 kts 350°
2026-04-23 06:05 29.07325 113.52290 33120 ft 486 kts 350°
2026-04-23 06:06 29.14084 113.52771 33119 ft 485 kts 350°
2026-04-23 06:06 29.20816 113.53251 33122 ft 485 kts 350°
2026-04-23 06:07 29.27543 113.53740 33103 ft 484 kts 351°
2026-04-23 06:07 29.34267 113.54276 33114 ft 485 kts 351°
2026-04-23 06:08 29.40992 113.54875 33125 ft 485 kts 351°
2026-04-23 06:08 29.47712 113.55483 33126 ft 484 kts 352°
2026-04-23 06:09 29.54433 113.56071 33124 ft 483 kts 352°
2026-04-23 06:09 29.61128 113.56645 33131 ft 482 kts 352°
2026-04-23 06:10 29.67817 113.57223 33129 ft 482 kts 352°
2026-04-23 06:10 29.74493 113.57811 33133 ft 481 kts 352°
2026-04-23 06:11 29.81159 113.58395 33128 ft 480 kts 352°
2026-04-23 06:11 29.87831 113.58972 33128 ft 480 kts 353°
2026-04-23 06:12 29.94509 113.59900 33120 ft 495 kts
2026-04-23 06:12 29.97823 113.61182 33116 ft 509 kts 13°
2026-04-23 06:12 30.04328 113.64444 33121 ft 510 kts 14°
2026-04-23 06:13 30.10835 113.67695 33123 ft 509 kts 13°
2026-04-23 06:13 30.17340 113.70930 33120 ft 509 kts 13°
2026-04-23 06:14 30.23843 113.74181 33121 ft 509 kts 14°
2026-04-23 06:14 30.30345 113.77448 33110 ft 509 kts 14°
2026-04-23 06:15 30.36864 113.80727 33123 ft 508 kts 14°
2026-04-23 06:15 30.43343 113.83980 33121 ft 507 kts 14°
2026-04-23 06:16 30.49825 113.87234 33120 ft 507 kts 14°
2026-04-23 06:16 30.56286 113.90487 33123 ft 506 kts 14°
2026-04-23 06:17 30.62742 113.93750 33127 ft 505 kts 14°
2026-04-23 06:17 30.69200 113.96945 33126 ft 503 kts 13°
2026-04-23 06:18 30.75623 114.00246 33129 ft 506 kts 17°
2026-04-23 06:18 30.80899 114.03229 33130 ft 507 kts 17°
2026-04-23 06:19 30.87234 114.06790 33129 ft 505 kts 17°
2026-04-23 06:19 30.93633 114.10257 33129 ft 504 kts 16°
2026-04-23 06:20 31.00000 114.13670 33124 ft 503 kts 16°
2026-04-23 06:20 31.06358 114.17113 33121 ft 503 kts 16°
2026-04-23 06:21 31.12707 114.20565 33123 ft 503 kts 17°
2026-04-23 06:21 31.19053 114.24023 33126 ft 503 kts 17°
2026-04-23 06:22 31.25391 114.27476 33129 ft 502 kts 17°
2026-04-23 06:22 31.31731 114.30936 33128 ft 501 kts 15°
2026-04-23 06:23 31.34967 114.32303 33114 ft 490 kts
2026-04-23 06:23 31.38259 114.33097 33115 ft 478 kts 357°
2026-04-23 06:23 31.44798 114.33437 33112 ft 469 kts 351°
2026-04-23 06:24 31.51330 114.33617 33111 ft 470 kts 351°
2026-04-23 06:24 31.57871 114.33812 33113 ft 470 kts 351°
2026-04-23 06:25 31.64413 114.34009 33114 ft 471 kts 351°
2026-04-23 06:25 31.70968 114.34205 33107 ft 471 kts 351°
2026-04-23 06:26 31.77532 114.34405 33106 ft 472 kts 351°
2026-04-23 06:26 31.84109 114.34599 33110 ft 473 kts 351°
2026-04-23 06:27 31.90704 114.34793 33111 ft 474 kts 351°
2026-04-23 06:27 31.97302 114.34996 33104 ft 475 kts 351°
2026-04-23 06:28 32.03945 114.35202 33108 ft 475 kts 351°
2026-04-23 06:28 32.10521 114.35398 33113 ft 476 kts 351°
2026-04-23 06:29 32.17191 114.35594 33116 ft 476 kts 351°
2026-04-23 06:29 32.23810 114.35792 33121 ft 477 kts 351°
2026-04-23 06:30 32.30463 114.36135 33120 ft 481 kts 353°
2026-04-23 06:30 32.37156 114.36808 33124 ft 483 kts 355°
2026-04-23 06:31 32.43843 114.37526 33126 ft 483 kts 354°
2026-04-23 06:31 32.50532 114.38156 33129 ft 482 kts 353°
2026-04-23 06:32 32.57227 114.38743 33130 ft 482 kts 353°
2026-04-23 06:32 32.63922 114.39339 33135 ft 482 kts 354°
2026-04-23 06:33 32.70609 114.39961 33133 ft 482 kts 354°
2026-04-23 06:33 32.77283 114.40592 33136 ft 482 kts 354°
2026-04-23 06:34 32.83966 114.41213 33137 ft 481 kts 354°
2026-04-23 06:34 32.90626 114.41836 33139 ft 480 kts 354°
2026-04-23 06:35 32.97296 114.42466 33141 ft 480 kts 354°
2026-04-23 06:35 33.03955 114.43096 33137 ft 479 kts 354°
2026-04-23 06:36 33.10593 114.43713 33138 ft 478 kts 355°
2026-04-23 06:36 33.17274 114.44334 33140 ft 478 kts 355°
2026-04-23 06:37 33.23885 114.44960 33141 ft 477 kts 355°
2026-04-23 06:37 33.30504 114.45580 33139 ft 476 kts 355°
2026-04-23 06:38 33.37101 114.46201 33138 ft 475 kts 355°
2026-04-23 06:38 33.43692 114.46825 33135 ft 474 kts 356°
2026-04-23 06:39 33.50262 114.47441 33140 ft 473 kts 356°
2026-04-23 06:39 33.56819 114.48054 33141 ft 473 kts 356°
2026-04-23 06:40 33.63379 114.48671 33140 ft 472 kts 356°
2026-04-23 06:40 33.69921 114.49285 33140 ft 471 kts 356°
2026-04-23 06:41 33.76451 114.49896 33145 ft 470 kts 356°
2026-04-23 06:41 33.82971 114.50508 33148 ft 470 kts 357°
2026-04-23 06:42 33.89494 114.51123 33149 ft 469 kts 357°
2026-04-23 06:42 33.95991 114.51739 33146 ft 469 kts 357°
2026-04-23 06:43 34.02488 114.52354 33148 ft 468 kts 357°
2026-04-23 06:43 34.08988 114.52969 33142 ft 467 kts 357°
2026-04-23 06:44 34.15507 114.53577 33139 ft 467 kts 358°
2026-04-23 06:44 34.21984 114.54189 33140 ft 466 kts 358°
2026-04-23 06:45 34.28450 114.54810 33141 ft 466 kts 358°
2026-04-23 06:45 34.34917 114.55432 33137 ft 465 kts 358°
2026-04-23 06:46 34.41364 114.56044 33134 ft 465 kts 358°
2026-04-23 06:46 34.47813 114.56651 33142 ft 464 kts 358°
2026-04-23 06:47 34.54243 114.57260 33135 ft 464 kts 358°
2026-04-23 06:47 34.60668 114.57871 33130 ft 463 kts 358°
2026-04-23 06:48 34.67095 114.58493 33129 ft 462 kts 358°
2026-04-23 06:48 34.73506 114.59105 33125 ft 462 kts 358°
2026-04-23 06:49 34.79909 114.59709 33127 ft 461 kts 358°
2026-04-23 06:49 34.86295 114.60313 33127 ft 461 kts 358°
2026-04-23 06:50 34.92687 114.60923 33120 ft 460 kts 359°
2026-04-23 06:50 34.99075 114.61539 33118 ft 460 kts 359°
2026-04-23 06:51 35.05446 114.62150 33113 ft 460 kts 359°
2026-04-23 06:51 35.11829 114.62763 33116 ft 459 kts 359°
2026-04-23 06:52 35.17166 114.63281 33110 ft 459 kts 359°
2026-04-23 06:52 35.23545 114.63894 33107 ft 459 kts 359°
2026-04-23 06:53 35.29894 114.64509 33099 ft 459 kts 359°
2026-04-23 06:53 35.36253 114.65118 33095 ft 458 kts 359°
2026-04-23 06:54 35.42617 114.65727 33091 ft 458 kts 359°
2026-04-23 06:54 35.48965 114.66343 33088 ft 458 kts 359°
2026-04-23 06:55 35.55321 114.66965 33087 ft 458 kts 359°
2026-04-23 06:55 35.61670 114.67578 33083 ft 457 kts 360°
2026-04-23 06:56 35.68008 114.68198 33081 ft 457 kts 360°
2026-04-23 06:56 35.74346 114.68814 33081 ft 456 kts 360°
2026-04-23 06:57 35.80667 114.69435 33083 ft 456 kts
2026-04-23 06:57 35.86988 114.70062 33081 ft 455 kts
2026-04-23 06:58 35.93298 114.70678 33063 ft 455 kts
2026-04-23 06:58 35.99651 114.71298 33075 ft 455 kts
2026-04-23 06:59 36.05912 114.71911 33058 ft 454 kts
2026-04-23 06:59 36.12250 114.72535 33067 ft 454 kts
2026-04-23 07:00 36.18552 114.73149 33057 ft 454 kts
2026-04-23 07:00 36.24840 114.73766 33059 ft 453 kts
2026-04-23 07:01 36.31130 114.74387 33064 ft 453 kts
2026-04-23 07:01 36.37401 114.74977 33055 ft 450 kts 357°
2026-04-23 07:02 36.43637 114.74748 33054 ft 448 kts 354°
2026-04-23 07:02 36.49860 114.74463 33035 ft 447 kts 354°
2026-04-23 07:03 36.56078 114.74178 33042 ft 447 kts 354°
2026-04-23 07:03 36.62292 114.73888 33047 ft 446 kts 354°
2026-04-23 07:04 36.68500 114.73599 33040 ft 446 kts 354°
2026-04-23 07:04 36.74702 114.73398 33029 ft 447 kts 359°
2026-04-23 07:05 36.80813 114.75039 33023 ft 456 kts 19°
2026-04-23 07:05 36.86592 114.78375 33020 ft 458 kts 21°
2026-04-23 07:06 36.92365 114.81726 33021 ft 457 kts 21°
2026-04-23 07:06 36.98134 114.85073 33019 ft 457 kts 21°
2026-04-23 07:07 37.03932 114.88451 33019 ft 456 kts 21°
2026-04-23 07:07 37.09689 114.91818 33020 ft 456 kts 21°
2026-04-23 07:08 37.15423 114.95178 33024 ft 455 kts 21°
2026-04-23 07:08 37.21157 114.98541 33020 ft 454 kts 21°
2026-04-23 07:09 37.26883 115.01904 33031 ft 453 kts 21°
2026-04-23 07:09 37.32513 115.05214 33029 ft 452 kts 22°
2026-04-23 07:10 37.38267 115.08612 33028 ft 451 kts 22°
2026-04-23 07:10 37.43860 115.11920 33021 ft 450 kts 22°
2026-04-23 07:11 37.49460 115.15236 33029 ft 450 kts 22°
2026-04-23 07:12 37.57945 115.20260 33026 ft 449 kts 22°
2026-04-23 07:12 37.63674 115.23656 33017 ft 448 kts 22°
2026-04-23 07:13 37.69352 115.27021 33024 ft 448 kts 22°
2026-04-23 07:13 37.74769 115.30251 33022 ft 447 kts 22°
2026-04-23 07:14 37.78491 115.32247 33016 ft 444 kts 14°
2026-04-23 07:14 37.82323 115.33273 33016 ft 439 kts
2026-04-23 07:14 37.85389 115.33358 33019 ft 436 kts 354°
2026-04-23 07:15 37.91449 115.32525 33013 ft 435 kts 352°
2026-04-23 07:15 37.97467 115.31677 33005 ft 434 kts 352°
2026-04-23 07:16 38.02455 115.30975 33003 ft 435 kts 352°
2026-04-23 07:16 38.08466 115.30127 32987 ft 434 kts 352°
2026-04-23 07:17 38.14467 115.29264 32984 ft 434 kts 352°
2026-04-23 07:17 38.20461 115.28372 32979 ft 433 kts 352°
2026-04-23 07:18 38.26487 115.27470 32976 ft 433 kts 352°
2026-04-23 07:18 38.32468 115.26583 32973 ft 433 kts 352°
2026-04-23 07:19 38.38448 115.25699 32971 ft 432 kts 352°
2026-04-23 07:19 38.44429 115.24811 32971 ft 432 kts 352°
2026-04-23 07:20 38.50399 115.23921 32968 ft 432 kts 352°
2026-04-23 07:20 38.56384 115.24177 32964 ft 435 kts 14°
2026-04-23 07:20 38.59201 115.25597 32959 ft 438 kts 27°
2026-04-23 07:21 38.61710 115.27810 32958 ft 442 kts 40°
2026-04-23 07:21 38.63779 115.30745 32961 ft 446 kts 53°
2026-04-23 07:21 38.65276 115.34214 32955 ft 449 kts 62°
2026-04-23 07:22 38.67924 115.41453 32955 ft 450 kts 62°
2026-04-23 07:22 38.70567 115.48715 32961 ft 451 kts 62°
2026-04-23 07:23 38.73464 115.55816 32973 ft 449 kts 57°
2026-04-23 07:23 38.76647 115.62684 32976 ft 449 kts 57°
2026-04-23 07:23 38.78240 115.66134 32810 ft 449 kts 57°
2026-04-23 07:24 38.79838 115.69601 31675 ft 455 kts 57°
2026-04-23 07:24 38.81461 115.73126 30417 ft 460 kts 57°
2026-04-23 07:24 38.83093 115.76672 29266 ft 461 kts 57°
2026-04-23 07:24 38.84710 115.80191 28262 ft 457 kts 57°
2026-04-23 07:25 38.86316 115.83689 27325 ft 453 kts 57°
2026-04-23 07:25 38.87917 115.87182 26260 ft 454 kts 57°
2026-04-23 07:25 38.89553 115.90748 25099 ft 462 kts 58°
2026-04-23 07:25 38.91192 115.94327 24045 ft 467 kts 57°
2026-04-23 07:26 38.92820 115.97886 23049 ft 470 kts 58°
2026-04-23 07:26 38.94480 116.01533 22240 ft 465 kts 58°
2026-04-23 07:26 38.96082 116.05061 21485 ft 460 kts 58°
2026-04-23 07:26 38.97706 116.08638 20662 ft 456 kts 58°
2026-04-23 07:27 38.99445 116.12021 19857 ft 450 kts 49°
2026-04-23 07:27 39.01659 116.14819 19072 ft 444 kts 36°
2026-04-23 07:27 39.04247 116.16902 18326 ft 437 kts 24°
2026-04-23 07:27 39.07073 116.18215 17561 ft 430 kts 12°
2026-04-23 07:28 39.10003 116.18739 16888 ft 421 kts
2026-04-23 07:28 39.11863 116.18678 16466 ft 415 kts 355°
2026-04-23 07:28 39.14722 116.18393 15825 ft 409 kts 353°
2026-04-23 07:28 39.17521 116.18014 15209 ft 403 kts 352°
2026-04-23 07:29 39.20288 116.17577 14625 ft 398 kts 351°
2026-04-23 07:29 39.23028 116.17124 14039 ft 394 kts 351°
2026-04-23 07:29 39.25726 116.16680 13467 ft 389 kts 351°
2026-04-23 07:29 39.28397 116.16253 12896 ft 384 kts 351°
2026-04-23 07:30 39.31030 116.15832 12372 ft 379 kts 351°
2026-04-23 07:30 39.33644 116.15417 11835 ft 376 kts 351°
2026-04-23 07:30 39.36233 116.15007 11321 ft 373 kts 351°
2026-04-23 07:30 39.38761 116.14611 11174 ft 360 kts 351°
2026-04-23 07:31 39.41196 116.14233 11045 ft 345 kts 351°
2026-04-23 07:31 39.43541 116.13875 10916 ft 333 kts 351°
2026-04-23 07:31 39.45797 116.13537 10793 ft 321 kts 351°
2026-04-23 07:31 39.47980 116.13211 10670 ft 309 kts 351°
2026-04-23 07:32 39.50073 116.12893 10545 ft 298 kts 350°
2026-04-23 07:32 39.52105 116.12581 10341 ft 291 kts 350°
2026-04-23 07:32 39.54107 116.12272 10030 ft 288 kts 350°
2026-04-23 07:32 39.56096 116.11962 9684 ft 287 kts 349°
2026-04-23 07:33 39.58073 116.11657 9302 ft 286 kts 350°
2026-04-23 07:33 39.60049 116.11354 8921 ft 285 kts 350°
2026-04-23 07:33 39.62012 116.11050 8550 ft 284 kts 350°
2026-04-23 07:33 39.63966 116.10749 8334 ft 283 kts 350°
2026-04-23 07:34 39.65931 116.10448 8206 ft 285 kts 350°
2026-04-23 07:34 39.67902 116.10144 8080 ft 285 kts 350°
2026-04-23 07:34 39.69876 116.09841 7943 ft 285 kts 350°
2026-04-23 07:34 39.71868 116.09534 7608 ft 284 kts 350°
2026-04-23 07:35 39.73841 116.09560 7218 ft 289 kts 12°
2026-04-23 07:35 39.75626 116.10755 6822 ft 294 kts 41°
2026-04-23 07:35 39.76767 116.12973 6252 ft 302 kts 74°
2026-04-23 07:35 39.77087 116.15627 6067 ft 292 kts 84°
2026-04-23 07:36 39.77318 116.18202 5936 ft 282 kts 84°
2026-04-23 07:36 39.77555 116.20686 5803 ft 271 kts 84°
2026-04-23 07:36 39.77790 116.23077 5513 ft 263 kts 84°
2026-04-23 07:36 39.78023 116.25425 5051 ft 263 kts 84°
2026-04-23 07:37 39.78213 116.27776 4682 ft 258 kts 93°
2026-04-23 07:37 39.77964 116.30024 4486 ft 243 kts 111°
2026-04-23 07:37 39.77281 116.31938 4363 ft 226 kts 129°
2026-04-23 07:37 39.76301 116.33455 4176 ft 214 kts 143°
2026-04-23 07:38 39.75122 116.34538 3898 ft 202 kts 156°
2026-04-23 07:38 39.73865 116.35166 3681 ft 186 kts 171°
2026-04-23 07:38 39.72627 116.35415 3514 ft 174 kts 177°
2026-04-23 07:38 39.71467 116.35602 3358 ft 163 kts 177°
2026-04-23 07:39 39.70361 116.35779 3199 ft 156 kts 176°
2026-04-23 07:39 39.69312 116.35946 3092 ft 148 kts 176°
2026-04-23 07:39 39.68310 116.36105 2930 ft 143 kts 176°
2026-04-23 07:39 39.67330 116.36260 2801 ft 141 kts 176°
2026-04-23 07:40 39.66360 116.36413 2679 ft 140 kts 176°
2026-04-23 07:40 39.65389 116.36567 2540 ft 140 kts 176°
2026-04-23 07:40 39.64426 116.36720 2477 ft 139 kts 178°
2026-04-23 07:40 39.63459 116.36874 2363 ft 139 kts 177°
2026-04-23 07:41 39.62499 116.37026 2220 ft 139 kts 178°
2026-04-23 07:41 39.61540 116.37178 2051 ft 139 kts 178°
2026-04-23 07:41 39.60584 116.37329 1872 ft 138 kts 177°
2026-04-23 07:41 39.59621 116.37482 1698 ft 138 kts 175°
2026-04-23 07:42 39.58667 116.37632 1510 ft 138 kts 176°
2026-04-23 07:42 39.57720 116.37782 1330 ft 138 kts 176°
2026-04-23 07:42 39.56780 116.37931 1140 ft 137 kts 177°
2026-04-23 07:42 39.55823 116.38079 967 ft 138 kts 176°
2026-04-23 07:43 39.54858 116.38231 748 ft 141 kts 176°
2026-04-23 07:43 39.53901 116.38385 605 ft 138 kts 175°
2026-04-23 07:43 39.52947 116.38529 373 ft 136 kts 174°
2026-04-23 07:43 39.51996 116.38688 247 ft 139 kts 174°
2026-04-23 07:44 39.51051 116.38837 114 ft 129 kts 175°
2026-04-23 07:44 39.50328 116.38940 95 ft 65 kts 172°
2026-04-23 07:44 39.50119 116.38986 96 ft 15 kts 158°
2026-04-23 07:44 39.50028 116.39036 96 ft 14 kts 154°
2026-04-23 07:45 39.49947 116.39097 94 ft 13 kts 148°
2026-04-23 07:45 39.49878 116.39171 96 ft 12 kts 133°
2026-04-23 07:45 39.49809 116.39231 96 ft 12 kts 155°
2026-04-23 07:45 39.49732 116.39269 95 ft 12 kts 171°
2026-04-23 07:46 39.49644 116.39281 97 ft 13 kts 173°
2026-04-23 07:46 39.49547 116.39297 96 ft 15 kts 173°
2026-04-23 07:46 39.49440 116.39313 97 ft 16 kts 174°
2026-04-23 07:46 39.49326 116.39336 96 ft 17 kts 156°
2026-04-23 07:47 39.49222 116.39427 95 ft 19 kts 145°
2026-04-23 07:47 39.49151 116.39548 95 ft 17 kts 85°
2026-04-23 07:47 39.49164 116.39706 97 ft 18 kts 83°
2026-04-23 07:47 39.49179 116.39869 97 ft 19 kts 83°
2026-04-23 07:48 39.49196 116.40038 97 ft 19 kts 83°
2026-04-23 07:48 39.49213 116.40217 95 ft 20 kts 83°
2026-04-23 07:48 39.49229 116.40390 95 ft 16 kts 83°
2026-04-23 07:48 39.49273 116.40454 96 ft 15 kts 11°
2026-04-23 07:49 39.49378 116.40443 97 ft 15 kts 352°
2026-04-23 07:49 39.49519 116.40422 97 ft 16 kts 353°
2026-04-23 07:49 39.49593 116.40411 97 ft 16 kts 353°
2026-04-23 07:49 39.49703 116.40394 96 ft 16 kts 353°
2026-04-23 07:50 39.49816 116.40378 96 ft 16 kts 354°
2026-04-23 07:50 39.49932 116.40362 96 ft 17 kts 354°
2026-04-23 07:50 39.50048 116.40337 95 ft 17 kts 349°
2026-04-23 07:50 39.50121 116.40239 96 ft 16 kts 298°
2026-04-23 07:51 39.50216 116.40198 95 ft 15 kts 354°
2026-04-23 07:51 39.50318 116.40182 95 ft 15 kts 353°
2026-04-23 07:51 39.50422 116.40165 96 ft 15 kts 353°
2026-04-23 07:51 39.50529 116.40147 95 ft 16 kts 353°
2026-04-23 07:52 39.50637 116.40130 96 ft 16 kts 353°
2026-04-23 07:52 39.50747 116.40113 95 ft 16 kts 353°
2026-04-23 07:52 39.50837 116.40116 95 ft 10 kts 36°
2026-04-23 07:52 39.50857 116.40199 95 ft 10 kts 84°
2026-04-23 07:53 39.50864 116.40292 98 ft 10 kts 84°
2026-04-23 07:53 39.50876 116.40386 97 ft 11 kts 75°
2026-04-23 07:53 39.50890 116.40438 97 ft 3 kts 70°
2026-04-23 07:53 39.50887 116.40456 95 ft 2 kts 114°
2026-04-23 07:54 39.50878 116.40469 95 ft 2 kts 136°
2026-04-23 07:54 39.50866 116.40475 97 ft 2 kts 166°
2026-04-23 07:54 39.50850 116.40482 95 ft 3 kts 158°
2026-04-23 07:54 39.50832 116.40491 96 ft 1 kts 159°
2026-04-23 07:55 39.50827 116.40493 95 ft 0 kts 159°
2026-04-23 07:58 39.69527 116.35912 3117 ft 149 kts 176°
2026-04-23 07:58 39.60996 116.37264 1947 ft 138 kts 178°
2026-04-23 07:58 39.60476 116.37346 1859 ft 138 kts 177°
2026-04-23 07:58 39.59701 116.37469 1712 ft 138 kts 176°
2026-04-23 07:59 39.58751 116.37619 1530 ft 138 kts 176°
2026-04-23 07:59 39.57797 116.37770 1349 ft 138 kts 176°
2026-04-23 07:59 39.56848 116.37920 1158 ft 137 kts 178°
2026-04-23 07:59 39.55889 116.38069 980 ft 138 kts 176°
2026-04-23 08:00 39.54930 116.38219 767 ft 141 kts 176°
2026-04-23 08:00 39.53967 116.38376 616 ft 138 kts 175°
2026-04-23 08:00 39.53012 116.38518 380 ft 136 kts 174°
2026-04-23 08:00 39.52062 116.38677 260 ft 138 kts 174°
2026-04-23 08:01 39.51111 116.38829 116 ft 130 kts 175°
2026-04-23 08:01 39.50362 116.38934 95 ft 72 kts 172°
2026-04-23 08:01 39.50140 116.38976 95 ft 16 kts 166°
2026-04-23 08:01 39.50129 116.38981 95 ft 15 kts 159°
2026-04-23 08:02 39.50124 116.38984 97 ft 0 kts 159°